Yakubu Gowon Airport

Airport
ICAO code: 
DNJO
IATA Code: 
JOS
Summary
ICAO Region: 
AFI
Territory: 
Location: 
Heipang, Plateau State
Serving: 
Jos
Elevation: 
4232 ft
Coordinates: 
Aerial View: 
9° 38' 17.448" N, 8° 52' 4.944" E
Metar
Observation
DNJO 191300Z 19011KT CAVOK 22/05 Q1020
Station
Jos
Date/Time
2022-01-19 13:00:00
Wind direction
190°
Wind speed
11 kts
Lowest cloud amount
clouds and visibility OK
Temperature
22°C
Dew point
5°C
Humidity
33%
QNH
1020 hPa
Weather condition
n/a

Yakubu Gowon Airport, also known as Jos Airport, is an airport serving Jos, the capital of the Plateau State of Nigeria.

Climatology

Tropical savanna climate (Köppen climate classification Aw

Runways

Designator Length Width Surface Rops
10/28 3001 45 ASP No/No
Airport map: 
Aerial View: 

Accidents and Serious Incidents at or in the vicinity of DNJO

SKYbrary Partners:

Safety knowledge contributed by: